Wind_Speed
14 13 11 9 7 5 3 3 3 2 2 3 3 5 7 8 10 11 12 12 13 13 13 13 14 14 14 15 15 14 14 14 13 13 13 13 13 13 13 13 14 14
16 15 13 11 9 8 5 2 2 2 2 2 2 3 5 6 8 9 10 11 11 11 11 11 11 12 12 12 13 13 13 13 12 12 12 12 12 12 11 11 11 11
18 17 15 13 12 11 8 5 3 2 2 2 1 2 3 4 6 7 8 9 9 9 9 9 9 9 9 10 10 10 11 11 11 11 11 11 11 11 11 10 10 10
20 19 17 16 15 13 11 8 6 4 3 3 3 2 2 3 4 6 7 8 8 8 8 8 8 8 8 8 8 8 8 8 9 9 10 10 10 10 10 10 9 9
21 20 20 19 17 15 13 11 9 7 5 5 4 3 2 2 3 5 6 7 7 7 7 7 7 7 7 7 7 7 7 7 7 7 7 8 8 8 8 8 8 8
23 22 21 20 19 16 14 13 12 10 7 6 5 4 3 3 2 4 5 6 7 7 7 7 7 7 7 7 7 7 7 7 6 6 5 5 6 6 6 6 6 7
23 23 22 22 20 18 16 15 14 12 10 8 7 6 5 4 3 3 4 5 6 7 7 8 8 8 7 7 7 7 8 7 7 6 6 5 5 4 4 4 4 4
24 24 24 23 21 19 18 17 15 13 12 10 8 8 7 6 5 4 4 4 6 6 7 8 8 9 8 8 8 7 7 7 7 7 6 6 5 5 4 4 4 3
25 25 25 24 22 20 19 18 16 15 14 12 10 10 9 8 6 5 5 5 5 6 7 8 8 8 8 8 8 7 7 7 7 7 7 6 6 6 5 5 5 5
27 26 26 25 23 21 20 18 17 17 15 13 13 12 11 10 9 7 6 5 5 6 6 7 7 8 8 7 7 6 6 6 6 7 7 6 6 6 6 6 6 6
29 28 27 26 24 22 21 20 19 18 17 15 15 14 13 13 11 9 8 6 6 6 6 6 6 7 7 6 6 5 4 5 5 6 6 6 6 6 6 6 6 7
30 29 29 28 25 23 22 21 20 20 19 17 17 16 15 15 13 11 9 8 8 7 7 6 6 5 6 5 5 4 3 3 4 4 5 6 6 6 6 6 7 7
31 31 30 28 27 25 24 23 22 21 21 19 19 18 17 17 15 13 11 10 10 9 8 7 6 5 5 5 5 4 2 1 2 3 4 5 5 6 6 7 7 8
33 32 30 29 28 27 26 26 24 23 22 21 20 20 19 18 16 14 13 12 12 10 10 8 7 6 5 6 6 5 3 2 0 1 2 3 4 5 5 6 7 8
35 33 31 30 29 28 28 28 27 25 23 22 22 21 20 19 18 16 16 15 14 13 12 11 9 7 7 7 7 6 5 4 2 1 1 1 2 3 4 5 6 7
38 36 34 32 30 29 29 29 29 27 26 25 24 23 22 21 20 19 18 17 16 15 15 13 11 9 9 9 9 8 7 5 4 3 2 1 1 2 3 3 4 5
40 39 36 34 32 31 30 30 30 30 29 28 26 25 25 23 22 21 20 19 18 18 17 15 13 11 11 12 12 10 9 8 6 5 4 3 3 3 3 3 3 4
41 40 39 37 35 33 32 31 31 31 32 31 30 28 27 26 24 23 22 21 21 21 19 16 14 14 14 15 14 13 11 10 9 8 7 6 5 4 4 3 3 3
42 41 40 38 36 35 33 31 31 32 34 35 34 32 30 29 28 27 25 24 24 23 20 18 17 17 17 17 15 15 13 12 11 11 10 8 7 6 5 4 4 4
44 42 41 40 38 36 34 32 32 33 35 36 36 35 34 33 31 29 27 26 25 24 21 19 18 19 19 18 17 16 15 14 14 13 12 11 10 8 7 6 6 6
47 46 44 43 40 38 36 34 33 34 35 36 36 36 36 35 33 31 30 28 27 25 22 20 20 20 20 19 18 17 16 15 14 13 12 12 11 10 9 8 7 7
49 49 47 45 42 40 38 37 35 35 36 36 36 36 36 34 34 33 32 29 27 25 24 23 22 22 22 22 20 19 18 16 14 14 13 13 12 11 10 9 8 8
50 50 49 46 43 41 40 38 37 36 36 36 36 36 35 34 34 33 32 29 28 27 27 26 25 24 25 25 23 22 21 18 16 15 15 14 13 12 11 10 9 9
48 50 49 46 43 41 40 39 37 35 34 34 35 34 33 33 33 32 31 30 30 30 29 28 26 26 27 27 25 23 22 20 18 17 17 16 14 14 12 11 11 10
46 48 48 46 43 42 40 38 36 34 33 32 32 32 31 31 31 31 32 32 31 31 30 29 28 29 29 29 26 24 24 22 20 19 19 17 15 15 15 14 13 12
44 45 48 48 45 41 38 36 35 34 32 31 30 31 30 30 30 31 32 32 32 32 31 31 31 31 31 30 28 26 25 23 21 21 19 16 16 17 17 16 14 13
Wind_Direction
261 266 270 277 284 293 333 15 25 25 34 51 60 59 59 59 58 59 61 62 63 65 67 68 70 70 72 72 72 71 70 68 68 68 69 69 67 66 65 66 68 69
254 259 264 270 274 277 282 313 355 354 350 8 35 47 53 56 56 54 56 57 58 60 62 64 67 70 71 74 75 75 74 73 72 70 68 68 66 65 63 61 60 61
248 252 258 262 264 268 270 278 299 311 301 303 328 7 34 46 52 49 49 51 53 52 53 56 59 63 65 69 73 76 77 77 77 76 74 71 69 66 64 61 59 55
247 248 250 253 256 260 264 268 275 283 280 271 277 313 359 24 40 42 39 41 43 44 44 44 46 49 53 55 60 65 70 72 75 76 77 76 74 71 68 66 62 57
248 246 246 247 249 252 256 260 264 269 274 268 266 277 313 341 14 26 26 28 30 31 32 30 29 31 35 38 40 43 48 54 59 64 69 72 73 73 72 70 68 64
247 247 246 246 246 247 250 255 258 262 269 272 265 262 271 295 335 3 13 15 14 15 15 15 13 13 16 21 25 26 28 31 34 37 42 49 56 63 66 68 70 68
247 248 248 247 246 245 246 249 252 255 261 266 264 257 258 273 299 330 354 2 2 2 2 1 360 358 1 8 15 19 19 18 20 18 17 19 22 29 38 43 51 57
248 249 250 249 248 246 244 245 247 250 254 257 259 254 253 261 277 299 327 345 349 351 352 352 350 348 350 358 6 13 15 15 13 9 5 3 360 360 1 1 1 6
246 248 250 251 251 248 246 245 246 248 250 252 253 250 248 252 262 276 298 322 334 339 343 344 344 342 344 349 356 5 11 12 10 6 2 358 355 352 350 346 345 344
245 247 250 251 251 249 247 246 247 248 248 249 250 247 244 244 249 257 274 295 314 324 332 336 336 337 338 340 347 356 5 9 6 4 1 358 355 351 348 347 347 347
244 246 249 250 250 249 247 246 246 247 246 246 247 245 241 241 242 247 258 274 293 306 317 323 326 328 328 328 332 340 356 5 5 3 2 2 1 357 355 354 354 356
240 243 245 248 249 249 248 247 246 245 244 243 243 240 238 238 239 243 251 264 277 288 299 306 311 314 313 308 307 314 333 359 5 7 6 7 5 4 5 7 8 8
236 238 240 243 247 248 248 247 246 245 243 241 239 237 235 234 236 239 246 257 267 275 283 286 287 291 290 285 281 278 285 320 12 16 15 12 6 6 11 17 20 20
231 233 236 239 242 244 246 246 244 244 242 240 237 234 232 232 234 238 244 252 260 267 271 270 266 266 264 261 259 254 248 240 201 62 34 18 5 4 10 17 23 25
226 228 230 233 236 239 242 243 243 242 241 239 237 233 230 231 233 237 242 249 255 260 263 258 250 246 244 243 242 238 231 220 203 182 134 46 359 352 1 13 21 25
220 223 225 227 230 234 236 238 240 240 239 239 237 234 231 230 231 235 240 246 251 255 255 250 240 233 231 230 229 227 222 216 210 208 204 210 274 313 334 357 11 18
219 220 221 222 225 227 229 232 235 236 236 236 236 235 234 232 231 232 236 242 248 250 248 242 231 225 225 223 220 218 215 212 209 209 212 221 243 269 296 321 343 1
222 221 221 221 222 223 224 226 228 231 233 234 234 234 234 234 233 234 236 240 244 245 241 232 223 219 221 220 216 214 213 210 208 208 209 214 227 246 265 286 305 329
224 224 224 224 224 223 223 222 223 227 230 231 232 232 233 235 236 236 236 238 241 241 237 228 219 217 219 219 216 215 214 212 210 208 209 210 216 228 242 260 277 294
223 224 225 226 226 226 225 224 224 225 227 229 230 231 232 234 236 237 238 239 240 239 235 228 220 217 220 220 219 219 219 217 215 212 211 211 214 220 229 241 254 269
222 223 224 224 225 226 226 225 225 226 228 229 230 230 230 232 233 236 237 237 238 237 235 230 222 217 219 222 222 223 225 224 222 220 217 216 216 219 223 229 239 251
222 223 223 223 223 225 226 226 225 226 228 230 231 230 230 229 230 232 233 233 234 234 233 228 220 214 216 220 220 223 227 229 228 226 225 224 223 224 225 226 233 243
225 224 223 223 224 225 227 227 226 226 228 230 232 232 230 228 228 229 230 230 230 230 229 225 218 213 215 218 218 220 224 227 225 226 229 229 229 232 233 231 234 240
226 225 224 225 225 227 229 230 230 231 231 232 233 234 233 230 229 229 229 228 227 226 224 221 216 214 216 219 218 219 223 224 222 223 227 229 232 236 239 239 239 241
224 225 224 224 226 228 230 231 233 234 237 239 240 240 238 235 233 231 229 227 225 223 222 219 216 214 217 220 220 220 224 224 221 222 225 227 231 237 241 243 243 245
224 224 223 222 223 226 229 233 236 237 238 241 244 245 245 242 237 234 231 228 225 223 222 219 216 215 217 221 221 221 225 225 223 224 225 224 228 237 242 245 245 248
Height
11032 11032 11033 11034 11035 11035 11036 11036 11036 11036 11036 11036 11036 11036 11036 11035 11035 11034 11033 11033 11032 11031 11030 11030 11029 11029 11028 11028 11028 11028 11027 11027 11026 11026 11026 11025 11025 11025 11024 11024 11023 11023
11030 11031 11032 11033 11034 11035 11035 11036 11036 11036 11036 11036 11036 11036 11036 11036 11035 11035 11034 11034 11033 11032 11031 11031 11030 11030 11029 11029 11029 11028 11028 11028 11027 11027 11027 11026 11026 11026 11025 11025 11025 11024
11028 11029 11031 11032 11033 11034 11035 11035 11036 11036 11036 11037 11037 11037 11037 11036 11036 11036 11035 11034 11033 11033 11032 11032 11031 11031 11030 11030 11029 11029 11028 11028 11028 11027 11027 11027 11027 11026 11026 11026 11025 11025
11026 11028 11029 11031 11031 11033 11034 11035 11035 11035 11036 11036 11037 11037 11037 11037 11037 11036 11036 11035 11034 11033 11033 11032 11032 11032 11031 11031 11030 11030 11029 11029 11028 11028 11028 11027 11027 11027 11026 11026 11025 11025
11025 11026 11027 11028 11030 11031 11032 11033 11034 11035 11035 11036 11036 11037 11037 11037 11037 11036 11036 11035 11035 11034 11033 11033 11033 11032 11032 11031 11031 11030 11030 11029 11029 11028 11028 11027 11027 11026 11026 11026 11025 11025
11023 11024 11025 11026 11028 11029 11031 11032 11033 11034 11035 11035 11036 11037 11037 11037 11037 11037 11036 11036 11035 11034 11034 11033 11033 11033 11032 11032 11031 11031 11030 11030 11029 11029 11028 11028 11027 11026 11026 11026 11025 11025
11021 11022 11023 11025 11026 11027 11029 11030 11031 11032 11033 11034 11035 11036 11036 11037 11037 11036 11036 11036 11035 11035 11034 11034 11034 11033 11033 11032 11031 11031 11031 11030 11030 11029 11029 11028 11027 11027 11026 11026 11025 11025
11020 11021 11022 11023 11024 11025 11027 11028 11029 11030 11032 11033 11034 11035 11035 11036 11036 11036 11036 11036 11035 11035 11034 11034 11034 11034 11033 11033 11032 11031 11031 11030 11030 11029 11029 11028 11028 11027 11026 11026 11025 11025
11018 11019 11020 11021 11022 11024 11025 11026 11027 11029 11030 11031 11032 11033 11034 11035 11036 11036 11035 11035 11035 11035 11034 11034 11034 11034 11034 11033 11032 11032 11031 11030 11030 11029 11029 11028 11027 11027 11026 11025 11025 11024
11015 11016 11018 11019 11020 11022 11023 11025 11026 11027 11028 11030 11031 11032 11033 11034 11034 11035 11034 11034 11034 11034 11034 11034 11034 11034 11034 11033 11033 11032 11031 11030 11030 11029 11028 11028 11027 11026 11026 11025 11024 11023
11012 11014 11015 11016 11018 11020 11022 11023 11024 11025 11026 11028 11029 11030 11031 11032 11032 11033 11033 11033 11033 11033 11033 11033 11033 11033 11033 11033 11033 11032 11032 11031 11030 11029 11028 11028 11027 11026 11025 11025 11024 11023
11009 11011 11012 11014 11016 11018 11020 11021 11022 11023 11024 11026 11027 11028 11029 11030 11030 11031 11031 11031 11031 11032 11032 11032 11033 11033 11033 11033 11033 11032 11032 11031 11030 11029 11029 11028 11027 11026 11025 11024 11024 11023
11005 11007 11008 11011 11013 11015 11018 11019 11020 11021 11022 11023 11024 11026 11027 11028 11029 11029 11030 11030 11030 11030 11030 11031 11031 11031 11032 11032 11032 11032 11031 11031 11030 11029 11029 11028 11027 11026 11025 11024 11024 11023
10999 11002 11005 11007 11009 11012 11014 11016 11017 11018 11019 11020 11021 11023 11024 11025 11026 11027 11028 11028 11028 11028 11029 11029 11029 11029 11030 11030 11030 11030 11030 11030 11030 11029 11029 11028 11027 11026 11025 11025 11024 11023
10994 10997 11000 11002 11005 11007 11010 11012 11013 11015 11016 11017 11018 11020 11021 11022 11023 11024 11025 11025 11026 11026 11027 11027 11027 11027 11028 11028 11028 11029 11029 11029 11029 11029 11028 11028 11027 11026 11025 11025 11024 11023
10988 10991 10994 10997 11000 11002 11004 11007 11009 11011 11013 11014 11015 11016 11018 11019 11020 11021 11022 11023 11023 11024 11024 11025 11025 11026 11026 11026 11026 11027 11027 11027 11027 11027 11027 11027 11027 11026 11025 11025 11024 11023
10984 10986 10989 10992 10994 10996 10999 11002 11004 11006 11008 11010 11011 11013 11014 11016 11017 11018 11019 11020 11021 11021 11022 11023 11023 11024 11024 11024 11024 11025 11025 11025 11025 11026 11026 11026 11026 11025 11024 11024 11024 11023
10981 10983 10985 10987 10989 10991 10994 10996 10999 11001 11003 11005 11007 11008 11010 11012 11013 11015 11016 11017 11017 11018 11019 11020 11021 11022 11022 11022 11023 11023 11023 11023 11023 11024 11024 11024 11024 11024 11023 11023 11023 11022
10977 10980 10982 10984 10985 10987 10989 10992 10995 10997 10998 11000 11002 11004 11006 11008 11009 11011 11012 11013 11014 11015 11016 11018 11019 11020 11020 11021 11021 11021 11022 11022 11022 11022 11022 11022 11022 11022 11022 11022 11021 11021
10973 10976 10978 10980 10982 10984 10986 10989 10991 10992 10994 10996 10998 11000 11002 11003 11005 11007 11008 11010 11011 11012 11014 11016 11017 11018 11019 11019 11020 11020 11021 11021 11020 11020 11020 11020 11020 11020 11020 11020 11020 11019
10967 10970 10973 10976 10979 10981 10983 10985 10987 10989 10990 10992 10995 10996 10998 10999 11001 11003 11004 11006 11008 11010 11011 11013 11014 11016 11017 11017 11018 11019 11019 11020 11020 11019 11019 11019 11018 11018 11018 11018 11018 11018
10963 10966 10968 10972 10975 10978 10980 10982 10983 10985 10987 10989 10991 10993 10994 10996 10997 10999 11000 11002 11005 11007 11008 11009 11011 11012 11013 11014 11015 11016 11017 11018 11018 11019 11018 11018 11017 11017 11016 11016 11016 11016
10959 10962 10965 10969 10972 10975 10978 10979 10981 10982 10984 10986 10988 10990 10991 10993 10994 10996 10997 10999 11002 11003 11004 11006 11008 11009 11010 11010 11011 11012 11013 11014 11016 11017 11017 11017 11017 11016 11015 11015 11014 11014
10954 10958 10963 10966 10970 10973 10976 10978 10980 10982 10983 10985 10986 10988 10990 10991 10993 10994 10995 10996 10998 10999 11001 11003 11005 11006 11007 11007 11008 11009 11010 11011 11012 11013 11014 11015 11015 11015 11015 11014 11013 11012
10950 10955 10960 10964 10968 10971 10974 10978 10980 10982 10983 10985 10986 10987 10989 10990 10992 10993 10993 10994 10995 10996 10998 11000 11002 11003 11004 11005 11006 11006 11007 11007 11009 11009 11010 11012 11013 11013 11013 11013 11012 11011
10946 10951 10955 10959 10964 10969 10975 10979 10981 10981 10982 10983 10984 10986 10988 10989 10990 10991 10991 10992 10993 10994 10996 10997 10999 11000 11001 11002 11003 11004 11004 11005 11005 11006 11007 11009 11010 11011 11011 11011 11011 11010